tititudorancea.com
Station Historical Data
Daily Summary for January 26, 2019 Units:  Metric    English   Both
« Previous Day
Next Day »
Daily Weekly Monthly Yearly Custom
  High: Low: Average:
Temperature: -17.8 °C 15.2 °C 21.6 °C
Dew Point: -17.8 °C 6.4 °C 11.8 °C
Humidity: Humidity % 23 % 59 %
Wind Speed: 0 km/h 1.9 km/h 13.5 km/h
Wind Gust: 0 km/h - -
Wind:- - SSW
Pressure: 0 hPa 1003.3 hPa -
Precipitation: 0 mm    
Historical Graphs
 
 
Ararat weather Find more about Weather in Ararat, AU


 



 


Tabular Data for January 26, 2019
Time Temperature Dew Point Pressure Wind Wind Speed Wind Gust Humidity Rainfall Rate (Hourly)
-17.8 °C -17.8 °C 0 hPa Calm     Humidity % 0 mm
00:04 18.3 °C 15 °C 1008.4 hPa SE 7.4 km/h 3.9 km/h 81 % 0 mm
00:09 18.4 °C 15.1 °C 1008.4 hPa SE 7.4 km/h 5.8 km/h 81 % 0 mm
00:14 18.4 °C 15.1 °C 1008 hPa SE 14.8 km/h 7.4 km/h 81 % 0 mm
00:19 18.3 °C 14.8 °C 1007.7 hPa SSE 14.8 km/h 8.5 km/h 80 % 0 mm
00:24 18.2 °C 14.7 °C 1007.3 hPa SSE 14.8 km/h 12.9 km/h 80 % 0 mm
00:29 18.2 °C 14.7 °C 1007.3 hPa SSE 22.2 km/h 9.3 km/h 80 % 0 mm
00:34 18.2 °C 14.4 °C 1007.3 hPa SE 19.3 km/h 12.9 km/h 79 % 0 mm
00:39 18.2 °C 14.3 °C 1007 hPa South 18.5 km/h 11.4 km/h 78 % 0 mm
00:44 18.2 °C 14.4 °C 1007.3 hPa South 12.9 km/h 10 km/h 79 % 0 mm
00:49 18.2 °C 14.4 °C 1007.3 hPa SSE 18.5 km/h 7.2 km/h 79 % 0 mm
00:54 18.1 °C 14.4 °C 1008 hPa SSE 13 km/h 7.2 km/h 79 % 0 mm
00:59 18.1 °C 14.4 °C 1008.4 hPa SSE 13 km/h 11.9 km/h 79 % 0 mm
01:04 18.1 °C 14.4 °C 1008 hPa South 8 km/h 4.8 km/h 79 % 0 mm
01:09 18.1 °C 14.4 °C 1008 hPa South 8 km/h 6.3 km/h 79 % 0 mm
01:14 18.1 °C 14.4 °C 1008 hPa South 9.3 km/h 7.2 km/h 79 % 0 mm
01:19 18.1 °C 14.3 °C 1007.7 hPa South 11.3 km/h 7.6 km/h 79 % 0 mm
01:24 18.1 °C 14.4 °C 1007.3 hPa South 13 km/h 10.3 km/h 79 % 0 mm
01:29 18 °C 14.3 °C 1007 hPa South 19.3 km/h 11.3 km/h 79 % 0 mm
01:34 17.9 °C 14.2 °C 1007 hPa South 18.5 km/h 9.7 km/h 79 % 0 mm
01:39 17.9 °C 14.2 °C 1007 hPa South 13 km/h 9.8 km/h 79 % 0 mm
01:44 17.8 °C 14.2 °C 1006.7 hPa South 18.5 km/h 11.4 km/h 79 % 0 mm
01:49 17.8 °C 14.1 °C 1006.3 hPa South 18.5 km/h 11.7 km/h 79 % 0 mm
01:54 17.7 °C 13.8 °C 1006.3 hPa South 18.5 km/h 10.9 km/h 78 % 0 mm
01:59 17.6 °C 13.7 °C 1006.3 hPa South 11.3 km/h 7.7 km/h 78 % 0 mm
02:04 17.6 °C 13.7 °C 1006.7 hPa South 18.5 km/h 10.9 km/h 78 % 0 mm
02:09 17.5 °C 13.6 °C 1006.7 hPa SSW 20.4 km/h 12.1 km/h 78 % 0 mm
02:14 17.5 °C 13.6 °C 1007 hPa South 11.3 km/h 6.9 km/h 78 % 0 mm
02:19 17.4 °C 13.8 °C 1007.3 hPa SSW 9.3 km/h 7.6 km/h 79 % 0 mm
02:24 17.4 °C 13.7 °C 1007.3 hPa SSW 5.6 km/h 7.4 km/h 79 % 0 mm
02:29 17.3 °C 13.7 °C 1007.3 hPa South 14.8 km/h 8.5 km/h 79 % 0 mm
02:34 17.3 °C 13.6 °C 1007 hPa South 13 km/h 7.9 km/h 79 % 0 mm
02:39 17.2 °C 13.7 °C 1007 hPa South 9.3 km/h 6.9 km/h 80 % 0 mm
02:44 17.1 °C 13.6 °C 1007 hPa South 16.7 km/h 9.8 km/h 80 % 0 mm
02:49 17 °C 13.5 °C 1007 hPa South 16.7 km/h 7.7 km/h 80 % 0 mm
02:54 16.9 °C 13.6 °C 1007 hPa South 16.7 km/h 10.8 km/h 81 % 0 mm
02:59 16.8 °C 13.6 °C 1007 hPa South 14.8 km/h 4.8 km/h 81 % 0 mm
03:04 16.8 °C 13.7 °C 1007.3 hPa South 13 km/h 9 km/h 82 % 0 mm
03:09 16.8 °C 13.7 °C 1007 hPa South 18.5 km/h 7.6 km/h 82 % 0 mm
03:14 16.7 °C 13.6 °C 1007 hPa South 14.8 km/h 9.2 km/h 82 % 0 mm
03:19 16.6 °C 13.7 °C 1007.3 hPa South 13 km/h 6.9 km/h 83 % 0 mm
03:24 16.6 °C 13.7 °C 1007.3 hPa South 11.3 km/h 6.9 km/h 83 % 0 mm
03:29 16.6 °C 13.7 °C 1007.7 hPa South 6.4 km/h 2.3 km/h 83 % 0 mm
03:34 16.6 °C 13.7 °C 1007.7 hPa South 9.3 km/h 5.5 km/h 83 % 0 mm
03:39 16.5 °C 13.6 °C 1007.7 hPa South 7.4 km/h 1.9 km/h 83 % 0 mm
03:44 16.5 °C 13.8 °C 1007.7 hPa South 7.4 km/h 1.3 km/h 84 % 0 mm
03:49 16.6 °C 13.8 °C 1007.7 hPa South 7.4 km/h 5 km/h 84 % 0 mm
03:54 16.6 °C 13.9 °C 1007.3 hPa South 7.4 km/h 2.7 km/h 84 % 0 mm
03:59 16.6 °C 13.9 °C 1007.7 hPa South 9.7 km/h 5.3 km/h 84 % 0 mm
04:04 16.6 °C 13.9 °C 1007.3 hPa South 13 km/h 8.4 km/h 84 % 0 mm
04:09 16.6 °C 13.8 °C 1007.3 hPa South 5.6 km/h 3.2 km/h 84 % 0 mm
04:14 16.4 °C 13.7 °C 1007.7 hPa South 6.4 km/h 7.4 km/h 84 % 0 mm
04:19 16.4 °C 13.9 °C 1007.7 hPa South 11.1 km/h 6.3 km/h 85 % 0 mm
04:24 16.4 °C 13.9 °C 1007.7 hPa South 7.4 km/h 4.3 km/h 85 % 0 mm
04:29 16.4 °C 13.9 °C 1007.7 hPa South 9.7 km/h 7.6 km/h 85 % 0 mm
04:34 16.4 °C 13.9 °C 1007.7 hPa South 11.1 km/h 6 km/h 85 % 0 mm
04:39 16.4 °C 13.8 °C 1007.7 hPa South 9.3 km/h 4.5 km/h 85 % 0 mm
04:44 16.4 °C 13.8 °C 1007.7 hPa South 7.4 km/h 5.6 km/h 85 % 0 mm
04:49 16.4 °C 13.8 °C 1007.7 hPa South 9.3 km/h 7.6 km/h 85 % 0 mm
04:54 16.4 °C 13.8 °C 1007.7 hPa South 5.6 km/h 4.5 km/h 85 % 0 mm
04:59 16.4 °C 13.8 °C 1008 hPa South 8 km/h 3.7 km/h 85 % 0 mm
05:04 16.4 °C 13.8 °C 1007.7 hPa South 5.6 km/h 0.6 km/h 85 % 0 mm
05:09 16.3 °C 13.8 °C 1007.7 hPa South 5.6 km/h 4.7 km/h 85 % 0 mm
05:14 16.3 °C 13.8 °C 1007.7 hPa South 7.4 km/h 2.6 km/h 85 % 0 mm
05:19 16.3 °C 13.8 °C 1007.7 hPa South 5.6 km/h 4.8 km/h 85 % 0 mm
05:24 16.3 °C 13.8 °C 1007.7 hPa South 5.6 km/h 5.6 km/h 85 % 0 mm
05:29 16.3 °C 13.8 °C 1007.7 hPa North 13 km/h 6.6 km/h 85 % 0 mm
05:34 16.3 °C 13.9 °C 1007.7 hPa South 9.3 km/h 5.1 km/h 86 % 0 mm
05:39 16.3 °C 14 °C 1007.3 hPa South 9.7 km/h 2.3 km/h 86 % 0 mm
05:44 16.3 °C 14 °C 1007.3 hPa South 7.4 km/h 4.3 km/h 86 % 0 mm
05:49 16.4 °C 14.1 °C 1007.3 hPa South 9.3 km/h 6.9 km/h 86 % 0 mm
05:54 16.4 °C 14.1 °C 1007.3 hPa South 5.6 km/h 3.4 km/h 86 % 0 mm
05:59 16.4 °C 14.1 °C 1007.3 hPa South 11.1 km/h 7.4 km/h 86 % 0 mm
06:04 16.4 °C 14.1 °C 1007.3 hPa South 9.3 km/h 6.6 km/h 86 % 0 mm
06:09 16.3 °C 13.8 °C 1007.3 hPa South 11.1 km/h 5.3 km/h 85 % 0 mm
06:14 16.2 °C 13.9 °C 1007.3 hPa South 5.6 km/h 4.2 km/h 86 % 0 mm
06:19 16.1 °C 13.8 °C 1007.3 hPa South 6.4 km/h 5.3 km/h 86 % 0 mm
06:24 16 °C 13.7 °C 1007.3 hPa South 11.1 km/h 6.1 km/h 86 % 0 mm
06:29 15.9 °C 13.6 °C 1007.3 hPa South 5.6 km/h 1.1 km/h 86 % 0 mm
06:34 15.8 °C 13.4 °C 1007.3 hPa South 5.6 km/h 2.6 km/h 86 % 0 mm
06:39 15.7 °C 13.5 °C 1007.3 hPa South 7.4 km/h 3.9 km/h 87 % 0 mm
06:44 15.6 °C 13.4 °C 1007.3 hPa South 7.4 km/h 3.5 km/h 87 % 0 mm
06:49 15.5 °C 13.3 °C 1007.3 hPa South 6.4 km/h 3.9 km/h 87 % 0 mm
06:54 15.4 °C 13.4 °C 1007.3 hPa South 5.6 km/h 4.3 km/h 88 % 0 mm
06:59 15.4 °C 13.4 °C 1007.3 hPa South 5.6 km/h 2.9 km/h 88 % 0 mm
07:04 15.3 °C 13.3 °C 1007.7 hPa South 3.7 km/h 1.4 km/h 88 % 0 mm
07:09 15.3 °C 13.3 °C 1007.3 hPa South 8 km/h 6.3 km/h 88 % 0 mm
07:14 15.3 °C 13.5 °C 1007.3 hPa South 9.3 km/h 6 km/h 89 % 0 mm
07:19 15.3 °C 13.5 °C 1007.3 hPa South 5.6 km/h 3.1 km/h 89 % 0 mm
07:24 15.2 °C 13.4 °C 1007.3 hPa South 11.1 km/h 4.7 km/h 89 % 0 mm
07:29 15.2 °C 13.4 °C 1007 hPa South 5.6 km/h 4.7 km/h 89 % 0 mm
07:34 15.2 °C 13.4 °C 1007.3 hPa South 5.6 km/h 3.1 km/h 89 % 0 mm
07:39 15.2 °C 13.6 °C 1007 hPa South 9.7 km/h 6.8 km/h 90 % 0 mm
07:44 15.3 °C 13.7 °C 1007.3 hPa South 13 km/h 5.5 km/h 90 % 0 mm
07:49 15.4 °C 13.9 °C 1007.3 hPa South 11.1 km/h 4.3 km/h 91 % 0 mm
07:54 15.6 °C 14.2 °C 1007.3 hPa South 9.7 km/h 7.7 km/h 91 % 0 mm
07:59 15.8 °C 14.2 °C 1007.3 hPa South 11.1 km/h 6.6 km/h 90 % 0 mm
08:04 15.9 °C 14.3 °C 1007.3 hPa South 17.7 km/h 9.7 km/h 90 % 0 mm
08:09 16.1 °C 14.4 °C 1007.3 hPa South 13 km/h 5.8 km/h 90 % 0 mm
08:14 16.3 °C 14.7 °C 1007.3 hPa South 13 km/h 7.6 km/h 90 % 0 mm
08:19 16.5 °C 14.7 °C 1007.7 hPa South 13 km/h 10.8 km/h 89 % 0 mm
08:24 16.7 °C 14.7 °C 1007.7 hPa South 19.3 km/h 10.9 km/h 88 % 0 mm
08:29 16.8 °C 14.6 °C 1007.7 hPa South 16.7 km/h 6.6 km/h 87 % 0 mm
08:34 16.9 °C 14.6 °C 1008 hPa South 14.8 km/h 10.3 km/h 86 % 0 mm
08:39 17.1 °C 14.7 °C 1008 hPa South 9.3 km/h 7.1 km/h 86 % 0 mm
08:44 17.4 °C 14.8 °C 1008 hPa South 11.1 km/h 11.1 km/h 85 % 0 mm
08:49 17.8 °C 14.7 °C 1008 hPa South 16.7 km/h 11.9 km/h 82 % 0 mm
08:54 17.9 °C 14.2 °C 1007.7 hPa South 16.7 km/h 14 km/h 79 % 0 mm
08:59 18.1 °C 14 °C 1007.7 hPa SSE 16.7 km/h 12.6 km/h 77 % 0 mm
09:04 18.4 °C 14.1 °C 1007.7 hPa SSE 14.5 km/h 11.4 km/h 76 % 0 mm
09:09 18.7 °C 14.2 °C 1007.7 hPa SSE 11.1 km/h 7.1 km/h 75 % 0 mm
09:14 18.9 °C 13.7 °C 1007.7 hPa SSE 14.8 km/h 11.4 km/h 72 % 0 mm
09:19 18.9 °C 13.3 °C 1007.7 hPa South 18.5 km/h 8.2 km/h 70 % 0 mm
09:24 19.4 °C 13.4 °C 1008 hPa SE 27.8 km/h 18.5 km/h 68 % 0 mm
09:29 19.9 °C 13.6 °C 1008 hPa SE 19.3 km/h 17.5 km/h 67 % 0 mm
09:34 19.8 °C 13.3 °C 1008 hPa SE 5.6 km/h 5.3 km/h 66 % 0 mm
09:39 19.4 °C 13.2 °C 1008 hPa SE 14.8 km/h 8 km/h 67 % 0 mm
09:44 19.1 °C 13.3 °C 1007.7 hPa SE 13 km/h 7.4 km/h 69 % 0 mm
09:49 19.4 °C 13.8 °C 1007.7 hPa SE 12.9 km/h 6.8 km/h 70 % 0 mm
09:54 20.3 °C 13.6 °C 1007.7 hPa SE 18.5 km/h 10 km/h 65 % 0 mm
09:59 20.6 °C 13.3 °C 1007.7 hPa SE 12.9 km/h 10.1 km/h 63 % 0 mm
10:04 20.6 °C 13.3 °C 1007.7 hPa SE 14.8 km/h 11.1 km/h 63 % 0 mm
10:09 20.9 °C 13.1 °C 1007.7 hPa SE 16.7 km/h 7.2 km/h 61 % 0 mm
10:14 20.6 °C 13.1 °C 1007.7 hPa SE 13 km/h 6 km/h 62 % 0 mm
10:19 20.9 °C 13.1 °C 1007.7 hPa SE 8 km/h 7.4 km/h 61 % 0 mm
10:24 21.1 °C 12.7 °C 1007.7 hPa SE 14.8 km/h 10.1 km/h 59 % 0 mm
10:29 21.1 °C 13 °C 1007.7 hPa SE 13 km/h 10.6 km/h 60 % 0 mm
10:34 21.5 °C 12.9 °C 1007.7 hPa SE 3.7 km/h 0.3 km/h 58 % 0 mm
10:39 21.6 °C 12.9 °C 1008 hPa SE 11.1 km/h 8.2 km/h 58 % 0 mm
10:44 21.6 °C 13 °C 1008 hPa SE 7.4 km/h 3.2 km/h 58 % 0 mm
10:49 21.4 °C 12.8 °C 1008 hPa SE 7.4 km/h 1.3 km/h 58 % 0 mm
10:54 21.4 °C 13.1 °C 1008 hPa SE 3.7 km/h 0.3 km/h 59 % 0 mm
10:59 21.4 °C 13.1 °C 1008 hPa SE 9.7 km/h 8.9 km/h 59 % 0 mm
11:04 21.2 °C 12.9 °C 1007.7 hPa SE 5.6 km/h 3.5 km/h 59 % 0 mm
11:09 21.6 °C 13.2 °C 1007.7 hPa SE 6.4 km/h 5.5 km/h 59 % 0 mm
11:14 22.4 °C 13.4 °C 1007.3 hPa SE 6.4 km/h 5.1 km/h 57 % 0 mm
11:19 22.4 °C 12.7 °C 1007.7 hPa SSE 16.7 km/h 12.7 km/h 54 % 0 mm
11:24 22.2 °C 12.7 °C 1007.3 hPa SSE 9.3 km/h 3.1 km/h 55 % 0 mm
11:29 22.4 °C 12.6 °C 1007.3 hPa SSE 12.9 km/h 7.2 km/h 54 % 0 mm
11:34 22.6 °C 12.5 °C 1007.3 hPa SSE 9.7 km/h 8.9 km/h 53 % 0 mm
11:39 22.4 °C 12.4 °C 1007.3 hPa SSE 1.9 km/h 0.2 km/h 53 % 0 mm
11:44 22.9 °C 12.8 °C 1007.3 hPa SSE 8 km/h 6.4 km/h 53 % 0 mm
11:49 23.6 °C 12.5 °C 1007.3 hPa SSE 9.3 km/h 4.8 km/h 50 % 0 mm
11:54 23.6 °C 12.3 °C 1007.3 hPa South 13 km/h 7.7 km/h 49 % 0 mm
11:59 23.7 °C 12.6 °C 1007.3 hPa South 7.4 km/h 6 km/h 50 % 0 mm
12:04 23.8 °C 12.4 °C 1007 hPa South 7.4 km/h 5 km/h 49 % 0 mm
12:09 24 °C 12.6 °C 1007 hPa South 8 km/h 3.9 km/h 49 % 0 mm
12:14 24.5 °C 12.8 °C 1007 hPa South 7.4 km/h 1.3 km/h 48 % 0 mm
12:19 24.8 °C 12.7 °C 1006.7 hPa South 9.3 km/h 5.3 km/h 47 % 0 mm
12:24 24.8 °C 12.7 °C 1006.7 hPa South 7.4 km/h 6.4 km/h 47 % 0 mm
12:29 25.3 °C 12.2 °C 1006.7 hPa South 3.7 km/h 2.7 km/h 44 % 0 mm
12:34 25.6 °C 12.1 °C 1006.7 hPa South 16.7 km/h 6.6 km/h 43 % 0 mm
12:39 25 °C 11.6 °C 1006.7 hPa South 3.7 km/h 1.8 km/h 43 % 0 mm
12:44 25.1 °C 11.7 °C 1006.7 hPa South 5.6 km/h 4.8 km/h 43 % 0 mm
12:49 25.4 °C 11.9 °C 1006.7 hPa SSW 13 km/h 7.6 km/h 43 % 0 mm
12:54 25.4 °C 11.6 °C 1006.7 hPa SSW 13 km/h 3.1 km/h 42 % 0 mm
12:59 25.6 °C 12.1 °C 1006.7 hPa SSW 3.7 km/h 3.1 km/h 43 % 0 mm
13:04 26.4 °C 11.7 °C 1006.7 hPa SSW 4.8 km/h 2.9 km/h 40 % 0 mm
13:09 26.9 °C 11.8 °C 1006.7 hPa NNE 16.7 km/h 5.8 km/h 39 % 0 mm
13:14 26.8 °C 11.3 °C 1006.7 hPa NW 9.3 km/h 6.1 km/h 38 % 0 mm
13:19 26.8 °C 11.3 °C 1006.3 hPa North 7.4 km/h 7.2 km/h 38 % 0 mm
13:24 27.1 °C 11.9 °C 1006.3 hPa North 5.6 km/h 4 km/h 39 % 0 mm
13:29 27.3 °C 11.3 °C 1006.3 hPa North 13 km/h 9.5 km/h 37 % 0 mm
13:34 27.1 °C 11.6 °C 1006.3 hPa ENE 13 km/h 6.8 km/h 38 % 0 mm
13:39 26.8 °C 11.7 °C 1006 hPa ENE 9.3 km/h 5.8 km/h 39 % 0 mm
13:44 27.2 °C 11.7 °C 1006 hPa ENE 11.3 km/h 8 km/h 38 % 0 mm
13:49 27.3 °C 11.8 °C 1006 hPa NNE 13 km/h 10.9 km/h 38 % 0 mm
13:54 27.4 °C 11.4 °C 1006 hPa NNE 5.6 km/h 4 km/h 37 % 0 mm
13:59 27.6 °C 11.2 °C 1005.6 hPa NNE 6.4 km/h 4.8 km/h 36 % 0 mm
14:04 27.8 °C 10.1 °C 1005.6 hPa North 20.4 km/h 12.7 km/h 33 % 0 mm
14:09 27.8 °C 10.5 °C 1005.6 hPa North 12.9 km/h 8.7 km/h 34 % 0 mm
14:14 27.9 °C 10.6 °C 1005.6 hPa West 7.4 km/h 1.8 km/h 34 % 0 mm
14:19 28.6 °C 10.2 °C 1005.6 hPa West 13 km/h 8 km/h 32 % 0 mm
14:24 28.4 °C 10.2 °C 1005.6 hPa North 11.1 km/h 3.1 km/h 32 % 0 mm
14:29 28.3 °C 10 °C 1005.3 hPa NNE 13 km/h 10.8 km/h 32 % 0 mm
14:34 28.8 °C 10 °C 1005.3 hPa WNW 11.1 km/h 9.7 km/h 31 % 0 mm
14:39 28.9 °C 9.6 °C 1005.3 hPa NNW 13 km/h 7.7 km/h 30 % 0 mm
14:44 28.8 °C 9.5 °C 1005.3 hPa NNE 8 km/h 3.5 km/h 30 % 0 mm
14:49 29.1 °C 9.8 °C 1005 hPa NW 24.1 km/h 11.7 km/h 30 % 0 mm
14:54 29.3 °C 9.9 °C 1005 hPa North 9.7 km/h 5 km/h 30 % 0 mm
14:59 29.1 °C 10.2 °C 1005 hPa NNW 7.4 km/h 3.5 km/h 31 % 0 mm
15:04 29.3 °C 10.4 °C 1005.3 hPa North 18.5 km/h 10.9 km/h 31 % 0 mm
15:09 29.4 °C 10.5 °C 1005 hPa NW 18.5 km/h 9.5 km/h 31 % 0 mm
15:14 29.5 °C 10.1 °C 1005 hPa NW 13 km/h 5.5 km/h 30 % 0 mm
15:19 29.7 °C 10.2 °C 1005 hPa North 9.3 km/h 8.9 km/h 30 % 0 mm
15:24 29.6 °C 10.2 °C 1004.6 hPa NNW 13 km/h 9.8 km/h 30 % 0 mm
15:29 29.8 °C 10.3 °C 1004.6 hPa NW 13 km/h 8.5 km/h 30 % 0 mm
15:34 29.7 °C 9.8 °C 1004.6 hPa NW 20.4 km/h 11.7 km/h 29 % 0 mm
15:39 29.6 °C 10.2 °C 1004.6 hPa NW 9.7 km/h 7.1 km/h 30 % 0 mm
15:44 29.9 °C 9.9 °C 1004.6 hPa North 18.5 km/h 9.5 km/h 29 % 0 mm
15:49 29.8 °C 9.9 °C 1004.6 hPa NW 17.7 km/h 9.7 km/h 29 % 0 mm
15:54 30.1 °C 9.6 °C 1004.6 hPa NW 27.8 km/h 19.6 km/h 28 % 0 mm
15:59 29.7 °C 9.8 °C 1004.3 hPa North 16.7 km/h 11.7 km/h 29 % 0 mm
16:04 29.7 °C 9.7 °C 1004.3 hPa NW 9.3 km/h 4 km/h 29 % 0 mm
16:09 29.7 °C 9.8 °C 1003.9 hPa North 14.5 km/h 8.7 km/h 29 % 0 mm
16:14 30.2 °C 8.6 °C 1003.9 hPa NW 18.5 km/h 11.7 km/h 26 % 0 mm
16:19 30.4 °C 8.7 °C 1003.9 hPa NW 7.4 km/h 5.8 km/h 26 % 0 mm
16:24 30.9 °C 8.6 °C 1003.9 hPa WNW 31.5 km/h 19.8 km/h 25 % 0 mm
16:29 30.8 °C 8.5 °C 1003.9 hPa North 18.5 km/h 11.3 km/h 25 % 0 mm
16:34 30.7 °C 9 °C 1004.3 hPa NW 18.5 km/h 9.5 km/h 26 % 0 mm
16:39 30.8 °C 8.5 °C 1003.9 hPa North 8 km/h 7.4 km/h 25 % 0 mm
16:44 30.7 °C 9 °C 1003.9 hPa WNW 24.1 km/h 10.3 km/h 26 % 0 mm
16:49 30.4 °C 8.8 °C 1003.9 hPa North 20.4 km/h 15 km/h 26 % 0 mm
16:54 30.6 °C 8.3 °C 1003.9 hPa North 16.7 km/h 10.8 km/h 25 % 0 mm
16:59 30.6 °C 9.5 °C 1003.9 hPa West 16.7 km/h 10.6 km/h 27 % 0 mm
17:04 30.6 °C 8.9 °C 1003.9 hPa North 14.8 km/h 7.6 km/h 26 % 0 mm
17:09 30.3 °C 9.2 °C 1003.9 hPa NNW 13 km/h 10.1 km/h 27 % 0 mm
17:14 30.3 °C 9.2 °C 1003.9 hPa WNW 22.2 km/h 15.8 km/h 27 % 0 mm
17:19 30.4 °C 8.7 °C 1003.9 hPa North 18.5 km/h 9 km/h 26 % 0 mm
17:24 30.4 °C 8.2 °C 1003.9 hPa North 12.9 km/h 10.6 km/h 25 % 0 mm
17:29 30.6 °C 8.3 °C 1003.6 hPa WNW 17.7 km/h 13.5 km/h 25 % 0 mm
17:34 30.3 °C 8.6 °C 1003.6 hPa WNW 20.4 km/h 13.5 km/h 26 % 0 mm
17:39 30.5 °C 8.2 °C 1003.6 hPa NNW 18.5 km/h 10.3 km/h 25 % 0 mm
17:44 30.3 °C 6.9 °C 1003.6 hPa WSW 18.5 km/h 14 km/h 23 % 0 mm
17:49 30.3 °C 6.9 °C 1003.6 hPa WSW 16.7 km/h 10.6 km/h 23 % 0 mm
17:54 30.4 °C 7 °C 1003.3 hPa NNW 18.5 km/h 4.8 km/h 23 % 0 mm
17:59 30.4 °C 8.2 °C 1003.6 hPa WNW 22.2 km/h 13.2 km/h 25 % 0 mm
18:04 30.1 °C 8.5 °C 1003.6 hPa WNW 11.1 km/h 5.6 km/h 26 % 0 mm
18:09 30.4 °C 8.2 °C 1003.6 hPa NW 14.5 km/h 9.3 km/h 25 % 0 mm
18:14 30.4 °C 8.2 °C 1003.3 hPa NW 9.3 km/h 8.2 km/h 25 % 0 mm
18:19 30.4 °C 8.2 °C 1003.6 hPa WNW 14.8 km/h 7.4 km/h 25 % 0 mm
18:24 30.1 °C 7.9 °C 1003.6 hPa WNW 24.1 km/h 9 km/h 25 % 0 mm
18:29 30.1 °C 7.9 °C 1003.6 hPa WNW 14.8 km/h 10.5 km/h 25 % 0 mm
18:34 30.3 °C 8.6 °C 1003.9 hPa North 18.5 km/h 11.7 km/h 26 % 0 mm
18:39 30.2 °C 7.9 °C 1003.9 hPa WNW 16.7 km/h 12.7 km/h 25 % 0 mm
18:44 30.1 °C 7.9 °C 1003.9 hPa North 24.1 km/h 12.4 km/h 25 % 0 mm
18:49 29.8 °C 8.3 °C 1003.9 hPa WNW 16.7 km/h 9.7 km/h 26 % 0 mm
18:54 29.6 °C 7.4 °C 1003.9 hPa West 18.5 km/h 12.4 km/h 25 % 0 mm
18:59 29.5 °C 8 °C 1003.9 hPa WNW 17.7 km/h 12.7 km/h 26 % 0 mm
19:04 29.2 °C 7.7 °C 1003.9 hPa WNW 16.7 km/h 12.7 km/h 26 % 0 mm
19:09 29 °C 7.6 °C 1004.3 hPa North 20.4 km/h 13 km/h 26 % 0 mm
19:14 28.8 °C 7.4 °C 1004.3 hPa West 24.1 km/h 20 km/h 26 % 0 mm
19:19 28.7 °C 7.8 °C 1004.3 hPa WNW 18.5 km/h 9.7 km/h 27 % 0 mm
19:24 28.7 °C 7.3 °C 1004.3 hPa West 18.5 km/h 15.3 km/h 26 % 0 mm
19:29 28.6 °C 7.2 °C 1004.3 hPa West 25.9 km/h 18 km/h 26 % 0 mm
19:34 28.5 °C 6.6 °C 1004.3 hPa West 18.5 km/h 14.2 km/h 25 % 0 mm
19:39 28.4 °C 6.4 °C 1004.6 hPa WNW 18.5 km/h 12.7 km/h 25 % 0 mm
19:44 28.3 °C 6.4 °C 1004.6 hPa WNW 20.4 km/h 15.4 km/h 25 % 0 mm
19:49 28.3 °C 6.4 °C 1005 hPa WNW 18.5 km/h 12.1 km/h 25 % 0 mm
19:54 28.6 °C 6.7 °C 1005 hPa West 14.8 km/h 14 km/h 25 % 0 mm
19:59 28.5 °C 7.1 °C 1005 hPa WSW 24.1 km/h 18 km/h 26 % 0 mm
20:04 26.8 °C 10.9 °C 1005.6 hPa South 22.5 km/h 17.1 km/h 37 % 0 mm
20:09 24.3 °C 11.6 °C 1005.6 hPa SSW 25.9 km/h 19.6 km/h 45 % 0 mm
20:14 23.2 °C 11.6 °C 1006 hPa SSW 22.5 km/h 16.3 km/h 48 % 0 mm
20:19 22.5 °C 11.8 °C 1006 hPa South 38.9 km/h 23 km/h 51 % 0 mm
20:24 22 °C 12 °C 1006.3 hPa South 25.9 km/h 15.8 km/h 53 % 0 mm
20:29 21.6 °C 11.9 °C 1006.3 hPa South 22.2 km/h 9.3 km/h 54 % 0 mm
20:34 21.4 °C 11.7 °C 1006.3 hPa South 27.8 km/h 15.9 km/h 54 % 0 mm
20:39 20.9 °C 11.6 °C 1006.3 hPa SSW 29.6 km/h 20.9 km/h 55 % 0 mm
20:44 20.6 °C 11.5 °C 1006.7 hPa South 33.3 km/h 19.6 km/h 56 % 0 mm
20:49 20.3 °C 11.7 °C 1007 hPa South 18.5 km/h 19 km/h 58 % 0 mm
20:54 20.1 °C 11.6 °C 1007.3 hPa SW 25.9 km/h 17.7 km/h 58 % 0 mm
20:59 19.9 °C 11.7 °C 1007.3 hPa South 20.4 km/h 14.6 km/h 59 % 0 mm
21:04 19.8 °C 11.8 °C 1007.3 hPa South 20.4 km/h 10.6 km/h 60 % 0 mm
21:09 19.7 °C 11.7 °C 1007.3 hPa South 19.3 km/h 13.4 km/h 60 % 0 mm
21:14 19.6 °C 11.8 °C 1007.7 hPa South 16.1 km/h 11.9 km/h 61 % 0 mm
21:19 19.4 °C 11.7 °C 1007.3 hPa South 18.5 km/h 9.3 km/h 61 % 0 mm
21:24 19.3 °C 11.6 °C 1007.7 hPa SSW 14.8 km/h 9.8 km/h 61 % 0 mm
21:29 19.2 °C 11.7 °C 1008 hPa South 14.8 km/h 6.6 km/h 62 % 0 mm
21:34 19.1 °C 11.6 °C 1008 hPa South 17.7 km/h 11.1 km/h 62 % 0 mm
21:39 18.9 °C 11.7 °C 1008 hPa SSW 24.1 km/h 15 km/h 63 % 0 mm
21:44 18.8 °C 11.8 °C 1008 hPa SSW 20.4 km/h 13 km/h 64 % 0 mm
21:49 18.6 °C 11.7 °C 1008 hPa SSW 20.4 km/h 18.7 km/h 64 % 0 mm
21:54 18.5 °C 11.8 °C 1008 hPa South 18.5 km/h 15.3 km/h 65 % 0 mm
21:59 18.4 °C 11.7 °C 1008.4 hPa SSW 18.5 km/h 13.8 km/h 65 % 0 mm
22:04 18.3 °C 11.8 °C 1008.4 hPa South 11.1 km/h 6.8 km/h 66 % 0 mm
22:09 18.2 °C 11.7 °C 1008 hPa SSE 14.8 km/h 10.8 km/h 66 % 0 mm
22:14 18 °C 11.8 °C 1008 hPa SSE 13 km/h 9.8 km/h 67 % 0 mm
22:19 17.9 °C 11.7 °C 1008.4 hPa SSE 14.8 km/h 7.4 km/h 67 % 0 mm
22:24 17.8 °C 11.6 °C 1008.4 hPa SSE 14.8 km/h 4 km/h 67 % 0 mm
22:29 17.7 °C 11.5 °C 1008.7 hPa SSE 16.7 km/h 10.8 km/h 67 % 0 mm
22:34 17.7 °C 11.7 °C 1008.7 hPa SSE 16.1 km/h 10.1 km/h 68 % 0 mm
22:39 17.6 °C 11.4 °C 1008.7 hPa South 14.8 km/h 11.6 km/h 67 % 0 mm
22:44 17.6 °C 11.3 °C 1008.7 hPa South 9.3 km/h 4.7 km/h 67 % 0 mm
22:49 17.5 °C 11.3 °C 1008.4 hPa South 9.3 km/h 8 km/h 67 % 0 mm
22:54 17.4 °C 11.2 °C 1008.4 hPa South 16.7 km/h 11.4 km/h 67 % 0 mm
22:59 17.4 °C 11.2 °C 1008.4 hPa South 14.8 km/h 10.3 km/h 67 % 0 mm
23:04 17.3 °C 11.2 °C 1008.4 hPa South 12.9 km/h 6.1 km/h 67 % 0 mm
23:09 17.3 °C 11.1 °C 1008.4 hPa South 17.7 km/h 10.3 km/h 67 % 0 mm
23:14 17.2 °C 11.1 °C 1008.4 hPa South 9.3 km/h 6.3 km/h 67 % 0 mm
23:19 17.2 °C 11 °C 1008 hPa South 18.5 km/h 11.6 km/h 67 % 0 mm
23:24 17.1 °C 10.9 °C 1008 hPa South 16.7 km/h 11.3 km/h 67 % 0 mm
23:29 17.1 °C 10.9 °C 1008 hPa SSW 18.5 km/h 8.7 km/h 67 % 0 mm
23:34 17.1 °C 10.9 °C 1008 hPa SSW 16.7 km/h 10 km/h 67 % 0 mm
23:39 17 °C 10.8 °C 1008 hPa SSW 18.5 km/h 8.4 km/h 67 % 0 mm
23:44 17.1 °C 10.5 °C 1008.4 hPa SSW 14.8 km/h 9 km/h 65 % 0 mm
23:49 17.1 °C 10 °C 1008.4 hPa South 14.8 km/h 5.1 km/h 63 % 0 mm
23:54 17.2 °C 9.6 °C 1008.7 hPa SSW 18.5 km/h 10.5 km/h 61 % 0 mm
23:59 17.3 °C 9.4 °C 1008.4 hPa SSW 7.4 km/h 6.6 km/h 60 % 0 mm
Ararat Weather
Compliments of Weather Underground - 2.25 mb
Click here to send mail.


ABOUT

Live weather data from Ararat, Victoria, Australia, 3377
Data uploaded from Cumulus every 5 minutes to Weather Underground.
This site then downloads the raw data for formatting and display.
Metric and imperial data can be displayed. Graphs and historical data available.
Includes Sun and Moon times and rain image live from BOM.

Check out Ararat Weather on Facebook, Twitter and Google +

Help support ongoing costs by checking out the ads





Follow @AraratWeather